GW2678 Weather Reports


time (UTC)temp
F
wind
direction
speed
knots
gust
knots
rain 1hr
in
rain 24hr
in
rain mn
in
humidity
%
barometer
mb
20260509064657 54 245 0.0 2.6 0.00 0.00 0.00 62 1014.5
20260509064509 56 245 0.0 0.9 0.00 0.00 0.00 61 1012.9
20260509064158 55 245 0.0 2.6 0.00 0.00 0.00 63 1014.6
20260509063657 55 245 0.9 2.6 0.00 0.00 0.00 63 1014.6
20260509063157 55 245 0.9 2.6 0.00 0.00 0.00 62 1014.7
20260509063004 57 244 1.7 2.6 0.00 0.00 0.00 62 1013.2
20260509062658 55 245 0.0 0.0 0.00 0.00 0.00 64 1014.8
20260509062157 56 245 0.0 1.7 0.00 0.00 0.00 63 1014.9
20260509061658 56 245 0.0 1.7 0.00 0.00 0.00 62 1014.9
20260509061512 58 245 0.0 1.7 0.00 0.00 0.00 60 1013.4
20260509061158 56 245 0.0 1.7 0.00 0.00 0.00 63 1015.1
20260509060657 56 245 0.0 1.7 0.00 0.00 0.00 61 1015.2
20260509060158 57 244 0.0 0.0 0.00 0.00 0.00 55 1015.2
20260509060007 59 244 0.0 0.0 0.00 0.00 0.00 55 1013.6
20260509055656 57 244 0.0 0.0 0.00 0.00 0.00 55 1015.3
20260509055156 57 244 0.0 0.0 0.00 0.00 0.00 54 1015.3
20260509054656 58 244 0.0 0.0 0.00 0.00 0.00 54 1015.4
20260509054508 60 244 0.0 0.0 0.00 0.00 0.00 53 1013.9
20260509054156 58 244 0.0 0.0 0.00 0.00 0.00 53 1015.4
20260509053927 58 244 0.0 0.0 0.00 0.00 0.00 52 1015.6
20260509053156 58 244 0.0 0.0 0.00 0.00 0.00 53 1015.6
20260509053018 60 244 0.0 0.0 0.00 0.00 0.00 52 1014.2
20260509052928 58 244 0.0 0.0 0.00 0.00 0.00 53 1015.8
20260509052157 59 244 0.0 0.0 0.00 0.00 0.00 53 1015.8
20260509051656 59 244 0.0 0.0 0.00 0.00 0.00 53 1015.8
20260509051508 61 244 0.0 0.0 0.00 0.00 0.00 53 1014.2
20260509051155 59 244 0.0 0.0 0.00 0.00 0.00 54 1015.8
20260509050656 59 244 0.0 2.6 0.00 0.00 0.00 54 1015.8
20260509050156 60 244 0.0 2.6 0.00 0.00 0.00 53 1015.9
20260509050009 62 244 0.0 2.6 0.00 0.00 0.00 51 1014.3
20260509045656 60 240 0.0 8.7 0.00 0.00 0.00 50 1015.9
20260509045156 60 240 1.7 8.7 0.00 0.00 0.00 48 1015.9
20260509044654 60 242 4.3 8.7 0.00 0.00 0.00 49 1015.9
20260509044511 62 210 2.6 8.7 0.00 0.00 0.00 48 1014.3
20260509044151 60 211 5.2 9.6 0.00 0.00 0.00 49 1015.9
20260509043650 59 211 5.2 9.6 0.00 0.00 0.00 49 1015.9
20260509043149 59 174 4.3 7.0 0.00 0.00 0.00 51 1015.9
20260509043013 61 218 4.3 7.0 0.00 0.00 0.00 50 1014.2
20260509042650 59 207 4.3 7.0 0.00 0.00 0.00 51 1016.0
20260509042155 58 223 4.3 7.0 0.00 0.00 0.00 51 1016.1
20260509041650 58 201 4.3 7.0 0.00 0.00 0.00 52 1016.1
20260509041508 60 202 3.5 7.0 0.00 0.00 0.00 52 1014.3
20260509041420 58 201 4.3 7.0 0.00 0.00 0.00 54 1016.2
20260509040650 58 198 3.5 7.0 0.00 0.00 0.00 52 1016.2
20260509040150 58 212 3.5 6.1 0.00 0.00 0.00 53 1016.2
20260509040009 60 214 2.6 6.1 0.00 0.00 0.00 54 1014.5
20260509035654 58 203 3.5 5.2 0.00 0.00 0.00 56 1016.2
20260509035650 58 202 3.5 5.2 0.00 0.00 0.00 56 1016.2
20260509034649 58 202 3.5 5.2 0.00 0.00 0.00 56 1016.2
20260509034505 60 202 2.6 5.2 0.00 0.00 0.00 55 1014.4
20260509034420 58 186 3.5 5.2 0.00 0.00 0.00 56 1016.1
20260509033650 58 207 3.5 5.2 0.00 0.00 0.00 57 1016.2
20260509033150 58 205 3.5 5.2 0.00 0.00 0.00 57 1016.2
20260509033007 60 200 2.6 5.2 0.00 0.00 0.00 56 1014.4
20260509032650 58 215 3.5 5.2 0.00 0.00 0.00 57 1016.1
20260509032150 58 201 3.5 5.2 0.00 0.00 0.00 58 1016.1
20260509031649 58 200 3.5 5.2 0.00 0.00 0.00 58 1016.1
20260509031508 60 208 3.5 5.2 0.00 0.00 0.00 58 1014.4
20260509031150 58 200 3.5 5.2 0.00 0.00 0.00 58 1016.1
20260509030650 58 204 2.6 4.3 0.00 0.00 0.00 56 1016.0
20260509030421 58 221 1.7 3.5 0.00 0.00 0.00 53 1016.1
20260509030255 59 221 0.0 2.6 0.00 0.00 0.00 52 1016.1
20260509030006 61 223 1.7 3.5 0.00 0.00 0.00 53 1014.2
20260509025149 59 221 0.0 1.7 0.00 0.00 0.00 51 1016.0
20260509024649 59 221 0.0 1.7 0.00 0.00 0.00 50 1016.1
20260509024506 61 221 0.0 0.0 0.00 0.00 0.00 49 1014.2
20260509024150 60 221 0.9 2.6 0.00 0.00 0.00 50 1016.0
20260509023651 60 221 0.9 3.5 0.00 0.00 0.00 49 1015.9
20260509023149 60 221 0.0 3.5 0.00 0.00 0.00 49 1016.0
20260509023008 62 160 0.0 0.0 0.00 0.00 0.00 49 1014.1
20260509022650 61 159 0.0 0.0 0.00 0.00 0.00 49 1015.9
20260509022150 61 159 0.0 0.0 0.00 0.00 0.00 49 1015.9
20260509021650 61 159 0.0 0.0 0.00 0.00 0.00 48 1015.8
20260509021508 63 159 0.0 0.0 0.00 0.00 0.00 47 1014.0
20260509021155 62 134 0.9 3.5 0.00 0.00 0.00 47 1015.6
20260509021150 62 134 0.0 0.9 0.00 0.00 0.00 48 1015.8
20260509020421 62 185 1.7 3.5 0.00 0.00 0.00 47 1015.8
20260509020007 65 178 0.9 3.5 0.00 0.00 0.00 46 1014.0
20260509015649 63 177 1.7 4.3 0.00 0.00 0.00 46 1015.8
20260509015150 63 177 0.9 4.3 0.00 0.00 0.00 43 1015.6
20260509014649 64 173 0.0 3.5 0.00 0.00 0.00 43 1015.8
20260509014511 66 172 0.0 2.6 0.00 0.00 0.00 42 1013.8
20260509014421 64 172 0.9 3.5 0.00 0.00 0.00 43 1015.5
20260509014255 64 172 1.7 4.3 0.00 0.00 0.00 42 1015.5
20260509013149 65 172 1.7 4.3 0.00 0.00 0.00 42 1015.5
20260509013010 67 172 1.7 4.3 0.00 0.00 0.00 41 1013.7
20260509012648 65 173 1.7 4.3 0.00 0.00 0.00 41 1015.5
20260509012148 65 173 1.7 4.3 0.00 0.00 0.00 41 1015.5
20260509011648 66 174 2.6 4.3 0.00 0.00 0.00 40 1015.5
20260509011508 68 173 0.9 4.3 0.00 0.00 0.00 40 1013.6
20260509011418 66 173 3.5 5.2 0.00 0.00 0.00 39 1015.5
20260509010647 66 180 3.5 6.1 0.00 0.00 0.00 39 1015.4
20260509010145 67 176 4.3 6.1 0.00 0.00 0.00 38 1015.4
20260509010011 69 177 3.5 7.0 0.00 0.00 0.00 37 1013.6
20260509005646 67 178 3.5 7.0 0.00 0.00 0.00 38 1015.5
20260509005415 67 132 3.5 7.0 0.00 0.00 0.00 36 1015.6
20260509004645 68 166 4.3 7.0 0.00 0.00 0.00 37 1015.5
20260509004527 70 174 4.3 7.0 0.00 0.00 0.00 37 1013.6
20260509004145 68 174 3.5 7.8 0.00 0.00 0.00 38 1015.5
20260509003645 68 176 2.6 7.8 0.00 0.00 0.00 38 1015.5
20260509003143 68 163 2.6 7.8 0.00 0.00 0.00 36 1015.4
20260509003007 70 147 1.7 6.1 0.00 0.00 0.00 35 1013.6
20260509002645 68 146 3.5 7.8 0.00 0.00 0.00 36 1015.4
20260509002143 69 163 4.3 8.7 0.00 0.00 0.00 36 1015.4
20260509001640 69 161 5.2 14.8 0.00 0.00 0.00 36 1015.4
20260509001512 71 153 3.5 14.8 0.00 0.00 0.00 35 1013.6
20260509001137 69 170 4.3 14.8 0.00 0.00 0.00 35 1015.5
20260509000637 69 202 4.3 10.4 0.00 0.00 0.00 36 1015.4
20260509000137 69 178 4.3 8.7 0.00 0.00 0.00 36 1015.5
20260509000007 71 193 5.2 8.7 0.00 0.00 0.00 36 1013.7
20260508235637 69 144 4.3 9.6 0.00 0.00 0.00 36 1015.5
20260508235137 69 144 5.2 9.6 0.00 0.00 0.00 35 1015.5
20260508234636 69 127 4.3 9.6 0.00 0.00 0.00 36 1015.4
20260508234512 71 123 5.2 9.6 0.00 0.00 0.00 36 1013.7
20260508234136 69 184 4.3 9.6 0.00 0.00 0.00 36 1015.4
20260508233635 69 144 3.5 8.7 0.00 0.00 0.00 36 1015.5
20260508233135 69 104 3.5 10.4 0.00 0.00 0.00 36 1015.5
20260508233014 71 98 2.6 8.7 0.00 0.00 0.00 35 1013.6
20260508232635 69 155 4.3 10.4 0.00 0.00 0.00 36 1015.4
20260508232135 69 118 5.2 10.4 0.00 0.00 0.00 36 1015.4
20260508231635 69 134 5.2 10.4 0.00 0.00 0.00 36 1015.4
20260508231514 71 117 7.0 10.4 0.00 0.00 0.00 35 1013.6
20260508231135 69 118 5.2 9.6 0.00 0.00 0.00 36 1015.4
20260508230635 69 123 6.1 9.6 0.00 0.00 0.00 36 1015.4
20260508230134 69 99 5.2 9.6 0.00 0.00 0.00 36 1015.5
20260508230010 71 110 5.2 9.6 0.00 0.00 0.00 36 1013.6
20260508225633 70 115 3.5 8.7 0.00 0.00 0.00 36 1015.5
20260508225133 70 147 4.3 11.3 0.00 0.00 0.00 37 1015.4
20260508224633 69 160 7.0 11.3 0.00 0.00 0.00 36 1015.4
20260508224512 72 151 5.2 11.3 0.00 0.00 0.00 36 1013.6
20260508224133 70 116 6.1 11.3 0.00 0.00 0.00 35 1015.4
20260508223639 71 113 4.3 8.7 0.00 0.00 0.00 32 1015.5
20260508223633 71 108 4.3 11.3 0.00 0.00 0.00 34 1015.5
20260508223033 74 167 2.6 8.7 0.00 0.00 0.00 33 1013.7
20260508222633 72 126 3.5 8.7 0.00 0.00 0.00 32 1015.4
20260508222133 72 184 2.6 8.7 0.00 0.00 0.00 33 1015.5
20260508221633 71 202 2.6 9.6 0.00 0.00 0.00 33 1015.6
20260508221514 73 182 2.6 7.0 0.00 0.00 0.00 32 1013.8
20260508221132 71 194 2.6 9.6 0.00 0.00 0.00 33 1015.9
20260508220631 72 179 4.3 10.4 0.00 0.00 0.00 32 1015.9
20260508220401 72 171 4.3 10.4 0.00 0.00 0.00 33 1015.9
20260508220011 74 162 5.2 10.4 0.00 0.00 0.00 32 1014.0
20260508215631 72 161 4.3 9.6 0.00 0.00 0.00 34 1015.9
20260508215401 72 196 4.3 9.6 0.00 0.00 0.00 35 1015.9
20260508214630 72 185 4.3 8.7 0.00 0.00 0.00 35 1015.9
20260508214512 73 189 2.6 8.7 0.00 0.00 0.00 35 1014.1
20260508214131 71 161 4.3 8.7 0.00 0.00 0.00 36 1015.9
20260508213630 71 204 3.5 8.7 0.00 0.00 0.00 35 1016.0
20260508213131 71 219 2.6 8.7 0.00 0.00 0.00 36 1016.0
20260508213014 72 102 0.9 7.0 0.00 0.00 0.00 34 1014.4
20260508212631 71 101 3.5 8.7 0.00 0.00 0.00 34 1016.1
20260508212131 71 130 3.5 8.7 0.00 0.00 0.00 35 1016.2
20260508211629 70 229 3.5 8.7 0.00 0.00 0.00 35 1016.2
20260508211515 72 247 3.5 7.8 0.00 0.00 0.00 35 1014.5
20260508211129 70 227 4.3 7.8 0.00 0.00 0.00 36 1016.3
20260508210629 70 173 3.5 8.7 0.00 0.00 0.00 36 1016.3
20260508210128 71 157 1.7 8.7 0.00 0.00 0.00 35 1016.3
20260508210016 73 155 4.3 8.7 0.00 0.00 0.00 35 1014.7
20260508205629 71 138 1.7 6.1 0.00 0.00 0.00 35 1016.5
20260508205128 70 135 2.6 7.8 0.00 0.00 0.00 35 1016.6
20260508204629 70 150 2.6 7.8 0.00 0.00 0.00 36 1016.6
20260508204516 71 141 0.9 8.7 0.00 0.00 0.00 36 1014.9
20260508204128 69 132 4.3 8.7 0.00 0.00 0.00 36 1016.7
20260508203627 70 126 4.3 8.7 0.00 0.00 0.00 37 1016.7
20260508203127 69 199 3.5 9.6 0.00 0.00 0.00 37 1016.6
20260508203018 71 227 3.5 9.6 0.00 0.00 0.00 37 1015.0
20260508202627 69 148 2.6 9.6 0.00 0.00 0.00 37 1016.7
20260508202127 68 169 1.7 6.1 0.00 0.00 0.00 39 1016.7
20260508201627 67 344 1.7 4.3 0.00 0.00 0.00 38 1016.8
20260508201516 69 342 0.0 4.3 0.00 0.00 0.00 38 1015.1
20260508201127 67 344 3.5 10.4 0.00 0.00 0.00 38 1016.8
20260508200627 67 124 5.2 10.4 0.00 0.00 0.00 39 1016.8
20260508200127 67 122 5.2 10.4 0.00 0.00 0.00 39 1016.9
20260508200010 69 143 4.3 10.4 0.00 0.00 0.00 39 1015.2
20260508195625 67 37 3.5 10.4 0.00 0.00 0.00 40 1016.9
20260508195125 66 125 2.6 7.8 0.00 0.00 0.00 41 1017.2
20260508194624 66 5 1.7 7.8 0.00 0.00 0.00 40 1017.0
20260508194515 68 41 3.5 7.8 0.00 0.00 0.00 41 1015.4
20260508194124 66 121 2.6 10.4 0.00 0.00 0.00 43 1017.3
20260508193623 65 113 5.2 10.4 0.00 0.00 0.00 43 1017.3
20260508193123 65 113 4.3 10.4 0.00 0.00 0.00 43 1017.3
20260508193017 67 113 5.2 9.6 0.00 0.00 0.00 43 1015.6
20260508192622 65 106 3.5 10.4 0.00 0.00 0.00 43 1017.3
20260508192123 65 84 3.5 10.4 0.00 0.00 0.00 44 1017.4
20260508191620 65 123 1.7 7.0 0.00 0.00 0.00 44 1017.4
20260508191533 66 184 2.6 7.0 0.00 0.00 0.00 43 1015.7
20260508191120 64 88 1.7 6.1 0.00 0.00 0.00 44 1017.5
20260508190621 63 98 2.6 7.0 0.00 0.00 0.00 44 1017.5
20260508190120 64 38 1.7 8.7 0.00 0.00 0.00 43 1017.6
20260508190026 66 65 2.6 6.1 0.00 0.00 0.00 42 1016.0
20260508185853 64 151 1.7 8.7 0.00 0.00 0.00 41 1017.6
20260508185121 64 150 3.5 9.6 0.00 0.00 0.00 41 1017.7
20260508184620 64 89 4.3 9.6 0.00 0.00 0.00 44 1017.7
20260508184524 66 109 6.1 9.6 0.00 0.00 0.00 44 1016.0
20260508184121 64 67 3.5 7.8 0.00 0.00 0.00 46 1017.7
20260508183621 63 48 3.5 7.8 0.00 0.00 0.00 44 1018.0
20260508183120 63 16 2.6 7.8 0.00 0.00 0.00 44 1018.0
20260508183016 65 40 0.9 7.8 0.00 0.00 0.00 45 1016.3
20260508182620 63 39 2.6 7.8 0.00 0.00 0.00 44 1018.1
20260508182120 63 114 3.5 7.8 0.00 0.00 0.00 43 1018.1
20260508181620 63 52 3.5 7.8 0.00 0.00 0.00 45 1018.2
20260508181517 65 119 3.5 8.7 0.00 0.00 0.00 46 1016.5
20260508181120 63 43 3.5 8.7 0.00 0.00 0.00 46 1018.3
20260508180620 63 73 2.6 8.7 0.00 0.00 0.00 46 1018.3
20260508180121 62 119 2.6 7.8 0.00 0.00 0.00 47 1018.4
20260508180012 64 78 0.0 6.1 0.00 0.00 0.00 45 1016.8
20260508175850 62 90 3.5 7.8 0.00 0.00 0.00 47 1018.6
20260508175118 62 36 2.6 7.8 0.00 0.00 0.00 46 1018.6
20260508174618 63 72 2.6 7.8 0.00 0.00 0.00 46 1018.7
20260508174517 65 96 4.3 7.8 0.00 0.00 0.00 46 1017.1
20260508174119 63 116 1.7 6.1 0.00 0.00 0.00 48 1018.8
20260508173619 63 53 1.7 6.1 0.00 0.00 0.00 51 1018.8
20260508173119 63 204 1.7 5.2 0.00 0.00 0.00 52 1018.9
20260508173019 64 250 0.9 3.5 0.00 0.00 0.00 52 1017.2
20260508172618 62 346 1.7 5.2 0.00 0.00 0.00 53 1018.9
20260508172119 62 17 1.7 5.2 0.00 0.00 0.00 53 1018.9
20260508171619 61 355 1.7 5.2 0.00 0.00 0.00 54 1019.0
20260508171519 63 17 1.7 5.2 0.00 0.00 0.00 53 1017.4
20260508171119 61 344 0.9 5.2 0.00 0.00 0.00 56 1019.1
20260508170619 60 0 1.7 5.2 0.00 0.00 0.00 58 1019.3
20260508170119 59 111 2.6 7.8 0.00 0.00 0.00 58 1019.1
20260508170018 61 109 1.7 7.8 0.00 0.00 0.00 58 1017.4
20260508165618 59 67 3.5 8.7 0.00 0.00 0.00 58 1019.1
20260508165119 59 71 3.5 8.7 0.00 0.00 0.00 58 1019.3
20260508164850 58 17 4.3 8.7 0.00 0.00 0.00 60 1019.1
20260508164520 60 71 2.6 8.7 0.00 0.00 0.00 60 1017.5
20260508164118 58 50 4.3 8.7 0.00 0.00 0.00 60 1019.1
20260508163618 58 86 3.5 8.7 0.00 0.00 0.00 60 1019.3
20260508163117 58 79 3.5 8.7 0.00 0.00 0.00 63 1019.3
20260508163021 60 64 4.3 8.7 0.00 0.00 0.00 62 1017.5
20260508162616 58 108 4.3 8.7 0.00 0.00 0.00 63 1019.4
20260508162117 57 107 5.2 8.7 0.00 0.00 0.00 61 1019.3
20260508161616 57 107 4.3 8.7 0.00 0.00 0.00 64 1019.3
20260508161523 59 90 3.5 8.7 0.00 0.00 0.00 62 1017.5
20260508161116 58 95 3.5 8.7 0.00 0.00 0.00 62 1019.3
20260508160617 57 140 2.6 7.0 0.00 0.00 0.00 63 1019.3
20260508160116 57 90 1.7 7.0 0.00 0.00 0.00 64 1019.3
20260508160020 59 88 2.6 7.0 0.00 0.00 0.00 62 1017.5
20260508155848 57 130 0.9 6.1 0.00 0.00 0.00 61 1019.3
20260508155116 56 149 1.7 5.2 0.00 0.00 0.00 60 1019.3
20260508154614 56 121 2.6 6.1 0.00 0.00 0.00 61 1019.1
20260508154522 58 175 1.7 6.1 0.00 0.00 0.00 60 1017.3
20260508154115 56 178 3.5 6.1 0.00 0.00 0.00 62 1019.1
20260508153615 56 158 4.3 7.8 0.00 0.00 0.00 61 1019.3
20260508153114 56 187 4.3 9.6 0.00 0.00 0.00 63 1019.1
20260508153018 58 188 4.3 7.8 0.00 0.00 0.00 64 1017.3
20260508152615 56 165 5.2 9.6 0.00 0.00 0.00 66 1019.1
20260508152112 55 190 6.1 9.6 0.00 0.00 0.00 67 1019.0
20260508151613 54 221 6.1 9.6 0.00 0.00 0.00 68 1019.0
20260508151521 56 193 6.1 9.6 0.00 0.00 0.00 69 1017.1
20260508151110 53 184 6.1 8.7 0.00 0.00 0.00 72 1018.9
20260508150610 53 194 6.1 8.7 0.00 0.00 0.00 72 1018.9
20260508150110 52 187 6.1 8.7 0.00 0.00 0.00 75 1018.9
20260508150022 54 187 5.2 8.7 0.00 0.00 0.00 74 1017.1
20260508145611 51 202 6.1 8.7 0.00 0.00 0.00 74 1019.0
20260508145110 51 174 6.1 8.7 0.00 0.00 0.00 76 1019.0
20260508144610 50 186 5.2 7.8 0.00 0.00 0.00 78 1019.1
20260508144521 52 178 6.1 7.8 0.00 0.00 0.00 77 1017.3
20260508144110 50 175 4.3 7.0 0.00 0.00 0.00 78 1019.0
20260508143610 50 147 4.3 7.8 0.00 0.00 0.00 77 1019.0
20260508143111 50 159 3.5 7.8 0.00 0.00 0.00 77 1019.1
20260508143020 52 143 2.6 7.8 0.00 0.00 0.00 77 1017.3
20260508142611 50 152 3.5 7.8 0.00 0.00 0.00 77 1018.9
20260508142111 50 170 4.3 7.8 0.00 0.00 0.00 77 1018.9
20260508141608 50 139 4.3 7.8 0.00 0.00 0.00 76 1018.9
20260508141522 52 132 5.2 7.8 0.00 0.00 0.00 76 1017.2
20260508141108 51 129 3.5 7.0 0.00 0.00 0.00 75 1019.0
20260508140608 50 156 1.7 6.1 0.00 0.00 0.00 76 1018.9
20260508140108 50 218 0.9 5.2 0.00 0.00 0.00 76 1018.8
20260508140020 52 234 0.0 5.2 0.00 0.00 0.00 76 1017.3
20260508135608 50 236 1.7 7.8 0.00 0.00 0.00 76 1018.9
20260508135107 49 238 3.5 7.8 0.00 0.00 0.00 77 1019.0
20260508134606 49 214 5.2 8.7 0.00 0.00 0.00 78 1018.8
20260508134518 51 209 3.5 8.7 0.00 0.00 0.00 77 1017.2
20260508134106 49 201 6.1 8.7 0.00 0.00 0.00 77 1018.8
20260508133606 49 180 5.2 8.7 0.00 0.00 0.00 78 1018.8
20260508133106 49 182 5.2 8.7 0.00 0.00 0.00 78 1018.9
20260508133012 50 154 4.3 8.7 0.00 0.00 0.00 77 1017.3
20260508132606 48 171 4.3 8.7 0.00 0.00 0.00 78 1018.9
20260508132107 48 179 4.3 10.4 0.00 0.00 0.00 78 1018.8
20260508131606 48 194 5.2 10.4 0.00 0.00 0.00 78 1018.8
20260508131511 50 182 4.3 10.4 0.00 0.00 0.00 78 1017.1
20260508131105 48 202 6.1 10.4 0.00 0.00 0.00 78 1018.8
20260508130606 48 210 5.2 10.4 0.00 0.00 0.00 78 1018.7
20260508130106 48 189 4.3 8.7 0.00 0.00 0.00 79 1018.6
20260508130022 50 198 5.2 8.7 0.00 0.00 0.00 78 1016.8
20260508125604 48 189 2.6 5.2 0.00 0.00 0.00 78 1018.4
20260508125104 48 148 1.7 4.3 0.00 0.00 0.00 78 1018.6
20260508124604 48 35 1.7 8.7 0.00 0.00 0.00 78 1018.7
20260508124514 50 35 0.9 5.2 0.00 0.00 0.00 78 1017.0
20260508124104 48 35 2.6 8.7 0.00 0.00 0.00 78 1018.7
20260508123604 48 29 3.5 8.7 0.00 0.00 0.00 78 1018.7
20260508123104 48 19 4.3 8.7 0.00 0.00 0.00 78 1018.7
20260508123024 50 28 3.5 8.7 0.00 0.00 0.00 78 1017.0
20260508122604 48 25 5.2 10.4 0.00 0.00 0.00 80 1018.7
20260508122335 47 18 5.2 10.4 0.00 0.00 0.00 80 1018.8
20260508121602 48 345 6.1 12.2 0.00 0.00 0.00 81 1018.8
20260508121523 50 14 4.3 11.3 0.00 0.00 0.00 80 1017.1
20260508121103 48 349 7.0 12.2 0.00 0.00 0.00 81 1018.7
20260508120602 47 348 7.0 12.2 0.00 0.00 0.00 81 1018.9
20260508120032 49 12 6.1 12.2 0.00 0.00 0.00 82 1017.5
20260508115602 47 5 6.1 11.3 0.00 0.00 0.00 83 1019.3
20260508115102 47 319 5.2 9.6 0.00 0.00 0.00 85 1019.4
20260508114606 46 355 0.0 4.3 0.00 0.00 0.00 86 1019.1
20260508114602 46 5 2.6 8.7 0.00 0.00 0.00 86 1019.4
20260508114513 48 347 5.2 8.7 0.00 0.00 0.00 86 1017.7
20260508113602 46 355 0.9 4.3 0.00 0.00 0.00 86 1018.8
20260508113332 45 355 1.7 4.3 0.00 0.00 0.00 86 1018.9
20260508113026 47 355 0.0 4.3 0.00 0.00 0.00 86 1017.3
20260508112600 45 355 1.7 4.3 0.00 0.00 0.00 86 1019.1
20260508112100 45 355 0.9 3.5 0.00 0.00 0.00 86 1018.9
20260508111600 45 236 0.0 0.9 0.00 0.00 0.00 86 1018.7
20260508111527 47 236 0.0 0.0 0.00 0.00 0.00 85 1017.0
20260508111101 45 236 0.0 0.9 0.00 0.00 0.00 85 1018.4
20260508110600 45 236 0.0 0.9 0.00 0.00 0.00 85 1018.4
20260508110100 45 236 0.0 2.6 0.00 0.00 0.00 85 1018.4
20260508110025 47 236 0.0 0.9 0.00 0.00 0.00 84 1016.6
20260508105600 45 236 0.0 2.6 0.00 0.00 0.00 85 1018.4
20260508105100 45 236 0.9 2.6 0.00 0.00 0.00 85 1018.3
20260508104600 45 236 0.0 2.6 0.00 0.00 0.00 85 1018.2
20260508104516 47 236 0.9 2.6 0.00 0.00 0.00 85 1016.4
20260508104059 46 330 0.0 0.0 0.00 0.00 0.00 86 1018.2
20260508103600 46 331 0.0 0.0 0.00 0.00 0.00 86 1018.2
20260508103100 46 331 0.0 0.0 0.00 0.00 0.00 86 1018.2
20260508103023 48 331 0.0 0.0 0.00 0.00 0.00 85 1016.4
20260508102600 46 331 0.0 3.5 0.00 0.00 0.00 86 1018.2
20260508102330 46 331 0.9 3.5 0.00 0.00 0.00 86 1018.1
20260508102205 46 331 0.9 3.5 0.00 0.00 0.00 85 1018.2
20260508101510 48 331 0.0 3.5 0.00 0.00 0.00 85 1016.4
20260508101100 46 331 0.0 3.5 0.00 0.00 0.00 85 1018.2
20260508100601 46 304 0.9 3.5 0.00 0.00 0.00 84 1018.1
20260508100332 46 350 1.7 7.8 0.00 0.00 0.00 84 1018.1
20260508100012 48 350 0.0 3.5 0.00 0.00 0.00 83 1016.3
20260508095601 46 350 3.5 7.8 0.00 0.00 0.00 83 1018.1
20260508095059 46 29 5.2 8.7 0.00 0.00 0.00 82 1018.1
20260508094559 47 39 2.6 8.7 0.00 0.00 0.00 81 1018.3
20260508094509 49 44 5.2 8.7 0.00 0.00 0.00 80 1016.4
20260508094058 47 49 1.7 5.2 0.00 0.00 0.00 80 1018.0
20260508093558 47 57 2.6 5.2 0.00 0.00 0.00 80 1017.7
20260508093058 46 57 2.6 5.2 0.00 0.00 0.00 81 1017.6
20260508093014 48 52 3.5 5.2 0.00 0.00 0.00 80 1015.9
20260508092555 46 29 0.9 3.5 0.00 0.00 0.00 80 1017.5
20260508092056 46 252 0.0 0.0 0.00 0.00 0.00 80 1017.3
20260508091555 46 251 0.0 0.0 0.00 0.00 0.00 80 1017.3
20260508091523 48 252 0.0 0.0 0.00 0.00 0.00 79 1015.5
20260508091055 46 252 0.0 3.5 0.00 0.00 0.00 80 1017.2
20260508090556 46 252 0.9 3.5 0.00 0.00 0.00 80 1017.2
20260508090056 46 252 0.9 3.5 0.00 0.00 0.00 80 1017.2
20260508090024 48 252 0.0 3.5 0.00 0.00 0.00 80 1015.4
20260508085556 47 253 0.0 3.5 0.00 0.00 0.00 80 1017.2
20260508085327 47 265 0.9 2.6 0.00 0.00 0.00 80 1017.2
20260508084556 47 267 0.9 2.6 0.00 0.00 0.00 80 1017.2
20260508084518 49 267 0.9 2.6 0.00 0.00 0.00 79 1015.4
20260508084056 47 269 0.0 0.0 0.00 0.00 0.00 80 1017.0
20260508083555 47 271 0.0 0.0 0.00 0.00 0.00 80 1017.0
20260508083056 47 271 0.0 0.0 0.00 0.00 0.00 80 1017.2
20260508083017 49 272 0.0 0.0 0.00 0.00 0.00 79 1015.4
20260508082556 47 321 0.0 0.0 0.00 0.00 0.00 80 1017.4
20260508082055 47 322 0.0 0.0 0.00 0.00 0.00 80 1017.4
20260508081555 47 322 0.0 0.0 0.00 0.00 0.00 80 1017.5
20260508081510 49 322 0.0 0.0 0.00 0.00 0.00 79 1015.7
20260508081056 48 322 0.0 0.0 0.00 0.00 0.00 80 1017.5
20260508080556 48 29 0.0 0.0 0.00 0.00 0.00 80 1017.9
20260508080055 48 30 0.0 0.0 0.00 0.00 0.00 79 1018.1
20260508080020 50 30 0.0 0.0 0.00 0.00 0.00 79 1016.4
20260508075555 48 30 0.0 0.0 0.00 0.00 0.00 80 1018.0
20260508075056 48 30 0.0 0.0 0.00 0.00 0.00 81 1018.1
20260508074556 48 30 0.0 0.0 0.00 0.00 0.00 80 1018.2
20260508074526 50 30 0.0 0.0 0.00 0.00 0.00 80 1016.5
20260508074055 49 30 0.0 0.0 0.00 0.00 0.00 80 1018.3
20260508073555 49 30 0.0 0.0 0.00 0.00 0.00 80 1018.1
20260508073056 49 49 0.0 0.0 0.00 0.00 0.00 80 1018.3
20260508073016 51 49 0.0 0.0 0.00 0.00 0.00 79 1016.6
20260508072555 49 49 0.0 0.0 0.00 0.00 0.00 80 1018.3
20260508072055 49 49 0.0 0.0 0.00 0.00 0.00 80 1018.3
20260508071556 49 49 0.0 0.0 0.00 0.00 0.00 80 1018.4
20260508071520 51 49 0.0 0.0 0.00 0.00 0.00 79 1016.6
20260508071326 49 49 0.0 0.0 0.00 0.00 0.00 79 1018.3
20260508070555 49 49 0.0 1.7 0.00 0.00 0.00 78 1018.4
20260508070055 49 49 0.0 1.7 0.00 0.00 0.00 78 1018.3
20260508070016 51 49 0.0 0.0 0.00 0.00 0.00 77 1016.6
20260508065556 50 49 0.0 1.7 0.00 0.00 0.00 77 1018.3
20260508065055 50 49 0.9 1.7 0.00 0.00 0.00 77 1018.2